UAL2609 KOKC-KDEN

Flight info

Callsign UAL2609
Flight time 1h 13m
Altitude 34000
Route STPHN3 ZEEWE TOTOE HALEN NIIXX4
Aircraft B38M/M-SDE1FGHILORVWXY/HB1

Departure

Time 2026-04-12 02:58
Airport OKC Will Rogers World Airport (KOKC)

Arrival

Time 2026-04-12 04:12
Airport Denver International Airport (KDEN)
Time Latitude Longitude Altitude Speed Heading
2026-04-12 02:32 35.39567 -97.59859 1299 ft 0 kts 180°
2026-04-12 02:48 35.39569 -97.59859 1300 ft 1 kts 180°
2026-04-12 02:49 35.39586 -97.59858 1300 ft 3 kts 180°
2026-04-12 02:49 35.39607 -97.59858 1300 ft 3 kts 180°
2026-04-12 02:49 35.39625 -97.59858 1300 ft 3 kts 207°
2026-04-12 02:49 35.39632 -97.59851 1300 ft 2 kts 268°
2026-04-12 02:50 35.39632 -97.59835 1300 ft 3 kts 269°
2026-04-12 02:50 35.39632 -97.59817 1300 ft 1 kts 269°
2026-04-12 02:50 35.39632 -97.59816 1300 ft 1 kts 269°
2026-04-12 02:52 35.39632 -97.59823 1300 ft 2 kts 269°
2026-04-12 02:52 35.39632 -97.59862 1300 ft 7 kts 269°
2026-04-12 02:53 35.39631 -97.59935 1300 ft 11 kts 269°
2026-04-12 02:53 35.39617 -97.60044 1299 ft 16 kts 247°
2026-04-12 02:53 35.39613 -97.60322 1292 ft 20 kts 316°
2026-04-12 02:54 35.39741 -97.60400 1290 ft 23 kts 359°
2026-04-12 02:54 35.39899 -97.60401 1292 ft 24 kts
2026-04-12 02:54 35.40075 -97.60401 1296 ft 26 kts
2026-04-12 02:54 35.40268 -97.60401 1299 ft 29 kts
2026-04-12 02:55 35.40435 -97.60402 1300 ft 17 kts 360°
2026-04-12 02:55 35.40557 -97.60413 1299 ft 16 kts 326°
2026-04-12 02:55 35.40580 -97.60509 1300 ft 11 kts 271°
2026-04-12 02:55 35.40536 -97.60573 1300 ft 12 kts 184°
2026-04-12 02:56 35.40522 -97.60573 1300 ft 0 kts 180°
2026-04-12 02:57 35.40519 -97.60573 1300 ft 2 kts 180°
2026-04-12 02:57 35.40474 -97.60573 1299 ft 13 kts 180°
2026-04-12 02:57 35.40142 -97.60573 1298 ft 86 kts 180°
2026-04-12 02:57 35.39309 -97.60571 1301 ft 149 kts 180°
2026-04-12 02:58 35.38195 -97.60592 1846 ft 163 kts 179°
2026-04-12 02:58 35.37054 -97.60605 2753 ft 163 kts 185°
2026-04-12 02:58 35.35938 -97.60999 3517 ft 178 kts 202°
2026-04-12 02:58 35.34754 -97.61682 3836 ft 197 kts 204°
2026-04-12 02:59 35.33477 -97.62484 4272 ft 215 kts 206°
2026-04-12 02:59 35.32096 -97.63352 4783 ft 229 kts 206°
2026-04-12 02:59 35.30705 -97.64312 5193 ft 236 kts 217°
2026-04-12 02:59 35.29662 -97.65881 6062 ft 242 kts 238°
2026-04-12 03:00 35.29144 -97.67842 7164 ft 246 kts 257°
2026-04-12 03:00 35.29210 -97.69989 8003 ft 262 kts 277°
2026-04-12 03:00 35.29839 -97.72128 8859 ft 276 kts 291°
2026-04-12 03:00 35.30761 -97.74270 9561 ft 288 kts 294°
2026-04-12 03:01 35.31726 -97.76436 10392 ft 295 kts 294°
2026-04-12 03:01 35.32721 -97.78730 10850 ft 315 kts 294°
2026-04-12 03:01 35.33765 -97.81184 11259 ft 335 kts 293°
2026-04-12 03:01 35.34861 -97.83789 11733 ft 351 kts 293°
2026-04-12 03:02 35.35997 -97.86492 12372 ft 360 kts 294°
2026-04-12 03:02 35.37149 -97.89224 13248 ft 363 kts 294°
2026-04-12 03:02 35.38320 -97.92002 14052 ft 369 kts 294°
2026-04-12 03:02 35.39505 -97.94819 14825 ft 373 kts 293°
2026-04-12 03:03 35.40699 -97.97657 15628 ft 377 kts 293°
2026-04-12 03:03 35.41897 -98.00503 16332 ft 383 kts 293°
2026-04-12 03:03 35.43125 -98.03423 17112 ft 386 kts 293°
2026-04-12 03:03 35.44362 -98.06368 17828 ft 391 kts 292°
2026-04-12 03:04 35.45614 -98.09352 18524 ft 395 kts 292°
2026-04-12 03:04 35.46842 -98.12378 19144 ft 396 kts 287°
2026-04-12 03:04 35.47467 -98.15624 19801 ft 390 kts 272°
2026-04-12 03:04 35.47808 -98.18939 20411 ft 394 kts 273°
2026-04-12 03:05 35.48141 -98.22285 21064 ft 396 kts 273°
2026-04-12 03:05 35.48460 -98.25658 21683 ft 399 kts 272°
2026-04-12 03:05 35.48771 -98.29056 22278 ft 402 kts 272°
2026-04-12 03:05 35.49080 -98.32485 22875 ft 406 kts 272°
2026-04-12 03:06 35.49385 -98.35899 23473 ft 408 kts 272°
2026-04-12 03:06 35.49697 -98.39407 24048 ft 409 kts 272°
2026-04-12 03:06 35.50002 -98.42848 24531 ft 412 kts 272°
2026-04-12 03:06 35.50311 -98.46360 25067 ft 414 kts 272°
2026-04-12 03:07 35.50622 -98.49887 25568 ft 417 kts 272°
2026-04-12 03:07 35.50933 -98.53440 26068 ft 419 kts 272°
2026-04-12 03:07 35.51245 -98.57000 26543 ft 421 kts 272°
2026-04-12 03:07 35.51556 -98.60585 27010 ft 424 kts 272°
2026-04-12 03:08 35.51870 -98.64195 27453 ft 426 kts 272°
2026-04-12 03:08 35.52184 -98.67826 27896 ft 429 kts 272°
2026-04-12 03:08 35.52499 -98.71481 28360 ft 431 kts 272°
2026-04-12 03:08 35.52815 -98.75154 28729 ft 436 kts 272°
2026-04-12 03:09 35.53131 -98.78837 29067 ft 440 kts 272°
2026-04-12 03:09 35.53451 -98.82574 29526 ft 442 kts 272°
2026-04-12 03:09 35.53773 -98.86340 29908 ft 445 kts 272°
2026-04-12 03:09 35.54095 -98.90133 30282 ft 447 kts 272°
2026-04-12 03:10 35.54417 -98.93940 30649 ft 449 kts 272°
2026-04-12 03:10 35.54738 -98.97747 31033 ft 449 kts 272°
2026-04-12 03:10 35.55059 -99.01567 31392 ft 450 kts 271°
2026-04-12 03:10 35.55378 -99.05379 31845 ft 447 kts 271°
2026-04-12 03:11 35.55695 -99.09163 32345 ft 444 kts 271°
2026-04-12 03:11 35.56294 -99.12897 32852 ft 449 kts 283°
2026-04-12 03:11 35.57670 -99.16380 33399 ft 458 kts 297°
2026-04-12 03:11 35.59729 -99.19412 33808 ft 468 kts 307°
2026-04-12 03:12 35.62021 -99.22261 33978 ft 467 kts 307°
2026-04-12 03:12 35.64319 -99.25074 34027 ft 466 kts 308°
2026-04-12 03:12 35.68162 -99.29710 33991 ft 465 kts 308°
2026-04-12 03:13 35.72792 -99.35264 33988 ft 465 kts 308°
2026-04-12 03:13 35.78183 -99.41734 33987 ft 465 kts 308°
2026-04-12 03:14 35.82062 -99.46399 33995 ft 465 kts 308°
2026-04-12 03:14 35.86688 -99.51969 33985 ft 469 kts 308°
2026-04-12 03:15 35.91364 -99.57609 33979 ft 471 kts 308°
2026-04-12 03:15 35.96048 -99.63270 33974 ft 471 kts 308°
2026-04-12 03:16 36.00732 -99.68941 33975 ft 471 kts 308°
2026-04-12 03:16 36.05414 -99.74619 33989 ft 471 kts 308°
2026-04-12 03:17 36.10066 -99.80270 34034 ft 471 kts 308°
2026-04-12 03:17 36.14761 -99.85983 34004 ft 474 kts 308°
2026-04-12 03:18 36.19471 -99.91726 34010 ft 475 kts 308°
2026-04-12 03:18 36.24149 -99.97440 34002 ft 475 kts 307°
2026-04-12 03:19 36.28863 -100.03207 33992 ft 475 kts 307°
2026-04-12 03:19 36.33565 -100.08969 33995 ft 474 kts 307°
2026-04-12 03:20 36.38236 -100.14706 33947 ft 473 kts 307°
2026-04-12 03:20 36.42914 -100.20460 33945 ft 473 kts 307°
2026-04-12 03:21 36.47569 -100.26196 33936 ft 476 kts 306°
2026-04-12 03:21 36.52295 -100.32031 33931 ft 476 kts 306°
2026-04-12 03:22 36.56956 -100.37794 33942 ft 476 kts 306°
2026-04-12 03:22 36.61655 -100.43617 33930 ft 477 kts 306°
2026-04-12 03:23 36.66353 -100.49448 33931 ft 477 kts 306°
2026-04-12 03:23 36.71049 -100.55289 33924 ft 477 kts 306°
2026-04-12 03:24 36.75749 -100.61143 33926 ft 479 kts 306°
2026-04-12 03:24 36.80458 -100.67021 33929 ft 478 kts 306°
2026-04-12 03:25 36.85159 -100.72900 33955 ft 478 kts 306°
2026-04-12 03:25 36.89851 -100.78777 33976 ft 478 kts 306°
2026-04-12 03:26 36.94511 -100.84624 34002 ft 478 kts 306°
2026-04-12 03:26 36.99199 -100.90515 34038 ft 476 kts 306°
2026-04-12 03:27 37.03850 -100.96383 34017 ft 472 kts 304°
2026-04-12 03:27 37.08072 -101.02584 34019 ft 468 kts 301°
2026-04-12 03:28 37.12322 -101.08782 34002 ft 469 kts 302°
2026-04-12 03:28 37.16581 -101.14976 33970 ft 469 kts 302°
2026-04-12 03:29 37.20832 -101.21169 33945 ft 467 kts 302°
2026-04-12 03:29 37.25063 -101.27343 33972 ft 466 kts 302°
2026-04-12 03:30 37.29292 -101.33528 33902 ft 467 kts 301°
2026-04-12 03:30 37.33531 -101.39737 33904 ft 468 kts 301°
2026-04-12 03:31 37.37744 -101.45920 33903 ft 468 kts 301°
2026-04-12 03:31 37.41970 -101.52135 33912 ft 465 kts 301°
2026-04-12 03:32 37.46171 -101.58324 33926 ft 465 kts 301°
2026-04-12 03:32 37.50371 -101.64523 33945 ft 465 kts 301°
2026-04-12 03:33 37.54574 -101.70739 33955 ft 467 kts 301°
2026-04-12 03:33 37.58792 -101.76988 33953 ft 468 kts 301°
2026-04-12 03:34 37.63002 -101.83238 33954 ft 466 kts 301°
2026-04-12 03:34 37.67194 -101.89474 33928 ft 466 kts 301°
2026-04-12 03:35 37.71380 -101.95712 33897 ft 466 kts 301°
2026-04-12 03:35 37.75569 -102.01965 33869 ft 466 kts 301°
2026-04-12 03:36 37.79748 -102.08215 33845 ft 465 kts 301°
2026-04-12 03:36 37.83998 -102.14361 33835 ft 469 kts 304°
2026-04-12 03:37 37.88478 -102.20375 33826 ft 469 kts 304°
2026-04-12 03:37 37.92926 -102.26415 33828 ft 469 kts 304°
2026-04-12 03:38 37.97369 -102.32463 33840 ft 469 kts 304°
2026-04-12 03:38 38.01807 -102.38516 33868 ft 466 kts 304°
2026-04-12 03:39 38.06199 -102.44518 33868 ft 464 kts 304°
2026-04-12 03:39 38.10594 -102.50536 33872 ft 464 kts 304°
2026-04-12 03:40 38.14956 -102.56521 33875 ft 464 kts 304°
2026-04-12 03:40 38.19344 -102.62549 33876 ft 464 kts 304°
2026-04-12 03:41 38.23740 -102.68580 33866 ft 466 kts 305°
2026-04-12 03:41 38.28144 -102.74635 33850 ft 466 kts 305°
2026-04-12 03:42 38.32558 -102.80716 33829 ft 469 kts 305°
2026-04-12 03:42 38.36998 -102.86844 33813 ft 470 kts 305°
2026-04-12 03:43 38.41427 -102.92969 33817 ft 470 kts 304°
2026-04-12 03:43 38.45850 -102.99097 33802 ft 472 kts 304°
2026-04-12 03:44 38.50302 -103.05278 33799 ft 472 kts 304°
2026-04-12 03:44 38.54752 -103.11468 33799 ft 472 kts 304°
2026-04-12 03:45 38.59198 -103.17664 33802 ft 473 kts 304°
2026-04-12 03:45 38.63648 -103.23879 33802 ft 474 kts 304°
2026-04-12 03:46 38.68070 -103.30064 33489 ft 471 kts 304°
2026-04-12 03:46 38.70278 -103.33159 33018 ft 470 kts 304°
2026-04-12 03:46 38.72487 -103.36258 32565 ft 471 kts 304°
2026-04-12 03:47 38.74698 -103.39363 32121 ft 473 kts 304°
2026-04-12 03:47 38.76924 -103.42490 31678 ft 475 kts 304°
2026-04-12 03:47 38.79157 -103.45630 31236 ft 477 kts 304°
2026-04-12 03:47 38.81389 -103.48778 30829 ft 479 kts 305°
2026-04-12 03:48 38.83629 -103.51944 30422 ft 479 kts 306°
2026-04-12 03:48 38.85866 -103.55108 30014 ft 480 kts 306°
2026-04-12 03:48 38.88113 -103.58288 29543 ft 480 kts 306°
2026-04-12 03:48 38.90346 -103.61452 29057 ft 473 kts 306°
2026-04-12 03:49 38.92539 -103.64563 28598 ft 468 kts 306°
2026-04-12 03:49 38.94718 -103.67657 28150 ft 464 kts 306°
2026-04-12 03:49 38.96869 -103.70714 27707 ft 459 kts 306°
2026-04-12 03:49 38.98998 -103.73743 27282 ft 455 kts 306°
2026-04-12 03:50 39.01113 -103.76754 26863 ft 451 kts 306°
2026-04-12 03:50 39.03209 -103.79743 26440 ft 448 kts 306°
2026-04-12 03:50 39.05262 -103.82671 26025 ft 444 kts 306°
2026-04-12 03:50 39.07321 -103.85612 25618 ft 440 kts 306°
2026-04-12 03:51 39.09358 -103.88525 25223 ft 436 kts 306°
2026-04-12 03:51 39.11379 -103.91416 24820 ft 432 kts 306°
2026-04-12 03:51 39.13373 -103.94294 24431 ft 428 kts 306°
2026-04-12 03:51 39.15344 -103.97155 24143 ft 426 kts 306°
2026-04-12 03:52 39.17306 -104.00003 23865 ft 424 kts 306°
2026-04-12 03:52 39.19264 -104.02847 23598 ft 422 kts 306°
2026-04-12 03:52 39.21211 -104.05678 23308 ft 420 kts 306°
2026-04-12 03:52 39.23147 -104.08493 22966 ft 418 kts 306°
2026-04-12 03:53 39.25070 -104.11294 22658 ft 416 kts 306°
2026-04-12 03:53 39.26986 -104.14087 22333 ft 414 kts 306°
2026-04-12 03:53 39.28890 -104.16863 22020 ft 412 kts 306°
2026-04-12 03:53 39.30986 -104.19389 21688 ft 418 kts 321°
2026-04-12 03:54 39.33496 -104.21228 21392 ft 419 kts 325°
2026-04-12 03:54 39.36019 -104.23104 21090 ft 418 kts 326°
2026-04-12 03:54 39.38528 -104.24981 20805 ft 416 kts 326°
2026-04-12 03:54 39.41021 -104.26848 20536 ft 414 kts 326°
2026-04-12 03:55 39.43512 -104.28715 20248 ft 412 kts 326°
2026-04-12 03:55 39.45990 -104.30574 19973 ft 410 kts 326°
2026-04-12 03:55 39.48508 -104.32310 19714 ft 411 kts 330°
2026-04-12 03:55 39.51070 -104.33926 19451 ft 409 kts 330°
2026-04-12 03:56 39.53616 -104.35554 19199 ft 407 kts 330°
2026-04-12 03:56 39.56146 -104.37183 18954 ft 405 kts 330°
2026-04-12 03:56 39.58666 -104.38809 18709 ft 403 kts 329°
2026-04-12 03:56 39.61176 -104.40432 18468 ft 402 kts 329°
2026-04-12 03:57 39.63675 -104.42048 18228 ft 400 kts 330°
2026-04-12 03:57 39.66160 -104.43658 17958 ft 399 kts 330°
2026-04-12 03:57 39.68635 -104.45262 17682 ft 396 kts 330°
2026-04-12 03:57 39.71091 -104.46855 17410 ft 394 kts 329°
2026-04-12 03:58 39.73562 -104.48381 17117 ft 394 kts 336°
2026-04-12 03:58 39.76208 -104.49314 16842 ft 394 kts 342°
2026-04-12 03:58 39.78847 -104.50206 16556 ft 392 kts 341°
2026-04-12 03:58 39.80593 -104.50806 16376 ft 390 kts 341°
2026-04-12 03:59 39.83205 -104.51706 16095 ft 386 kts 342°
2026-04-12 03:59 39.85847 -104.52127 15823 ft 382 kts 356°
2026-04-12 03:59 39.89316 -104.52164 15455 ft 370 kts 356°
2026-04-12 03:59 39.91035 -104.52166 15221 ft 365 kts 356°
2026-04-12 04:00 39.93545 -104.52153 14944 ft 357 kts 356°
2026-04-12 04:00 39.96787 -104.52124 14589 ft 348 kts 356°
2026-04-12 04:00 39.98416 -104.52110 14439 ft 344 kts 356°
2026-04-12 04:00 40.00810 -104.52088 14168 ft 342 kts 356°
2026-04-12 04:01 40.03183 -104.52067 13838 ft 340 kts 356°
2026-04-12 04:01 40.05538 -104.52045 13465 ft 338 kts 356°
2026-04-12 04:01 40.07852 -104.52023 12978 ft 335 kts 356°
2026-04-12 04:01 40.10180 -104.52001 12597 ft 333 kts 356°
2026-04-12 04:02 40.12490 -104.51980 12280 ft 330 kts 356°
2026-04-12 04:02 40.17063 -104.51936 11730 ft 328 kts 356°
2026-04-12 04:02 40.19338 -104.51895 11507 ft 328 kts 358°
2026-04-12 04:03 40.21625 -104.51687 11292 ft 328 kts
2026-04-12 04:03 40.23885 -104.51452 11155 ft 325 kts
2026-04-12 04:03 40.26136 -104.51227 11050 ft 323 kts 358°
2026-04-12 04:03 40.28301 -104.51674 10874 ft 311 kts 332°
2026-04-12 04:04 40.29939 -104.53341 10653 ft 294 kts 303°
2026-04-12 04:04 40.30652 -104.55748 10440 ft 281 kts 275°
2026-04-12 04:04 40.30642 -104.58265 10303 ft 274 kts 268°
2026-04-12 04:04 40.30475 -104.60751 10166 ft 274 kts 256°
2026-04-12 04:05 40.29515 -104.62882 10011 ft 277 kts 225°
2026-04-12 04:05 40.27841 -104.64183 9891 ft 284 kts 208°
2026-04-12 04:05 40.26026 -104.65226 9753 ft 285 kts 207°
2026-04-12 04:05 40.24207 -104.66267 9627 ft 285 kts 207°
2026-04-12 04:06 40.22395 -104.67301 9496 ft 284 kts 207°
2026-04-12 04:06 40.20514 -104.68127 9364 ft 287 kts 195°
2026-04-12 04:06 40.18514 -104.68376 9240 ft 290 kts 185°
2026-04-12 04:06 40.16501 -104.68391 9117 ft 288 kts 184°
2026-04-12 04:07 40.14541 -104.68402 9027 ft 280 kts 184°
2026-04-12 04:07 40.12632 -104.68421 8949 ft 269 kts 185°
2026-04-12 04:07 40.10808 -104.68440 8932 ft 256 kts 185°
2026-04-12 04:07 40.09051 -104.68461 8825 ft 248 kts 185°
2026-04-12 04:08 40.07351 -104.68480 8630 ft 240 kts 185°
2026-04-12 04:08 40.05727 -104.68499 8350 ft 232 kts 186°
2026-04-12 04:08 40.04121 -104.68517 8067 ft 225 kts 186°
2026-04-12 04:08 40.02582 -104.68534 7791 ft 219 kts 186°
2026-04-12 04:09 40.01082 -104.68552 7535 ft 212 kts 186°
2026-04-12 04:09 39.99631 -104.68567 7280 ft 201 kts 186°
2026-04-12 04:09 39.98318 -104.68580 7068 ft 178 kts 187°
2026-04-12 04:09 39.97147 -104.68594 6877 ft 162 kts 186°
2026-04-12 04:10 39.96027 -104.68613 6667 ft 161 kts 184°
2026-04-12 04:10 39.94900 -104.68621 6482 ft 162 kts 184°
2026-04-12 04:10 39.93779 -104.68639 6276 ft 161 kts 184°
2026-04-12 04:10 39.92665 -104.68645 6048 ft 159 kts 181°
2026-04-12 04:11 39.91568 -104.68662 5807 ft 156 kts 182°
2026-04-12 04:11 39.90485 -104.68672 5566 ft 155 kts 181°
2026-04-12 04:11 39.89418 -104.68684 5370 ft 151 kts 182°
2026-04-12 04:11 39.88502 -104.68695 5363 ft 102 kts 180°
2026-04-12 04:12 39.88008 -104.68702 5363 ft 45 kts 179°
2026-04-12 04:12 39.87765 -104.68655 5363 ft 27 kts 160°
2026-04-12 04:12 39.87637 -104.68571 5362 ft 15 kts 150°
2026-04-12 04:12 39.87580 -104.68529 5362 ft 9 kts 151°
2026-04-12 04:13 39.87508 -104.68498 5362 ft 14 kts 171°
2026-04-12 04:13 39.87419 -104.68493 5362 ft 8 kts 180°
2026-04-12 04:13 39.87360 -104.68495 5363 ft 11 kts 180°
2026-04-12 04:13 39.87266 -104.68496 5364 ft 16 kts 180°
2026-04-12 04:14 39.87136 -104.68497 5364 ft 21 kts 180°
2026-04-12 04:14 39.87021 -104.68498 5363 ft 17 kts 180°
2026-04-12 04:14 39.86890 -104.68500 5364 ft 19 kts 180°
2026-04-12 04:14 39.86742 -104.68501 5365 ft 24 kts 180°
2026-04-12 04:15 39.86565 -104.68503 5365 ft 23 kts 180°
2026-04-12 04:15 39.86421 -104.68505 5365 ft 21 kts 181°
2026-04-12 04:15 39.86263 -104.68507 5366 ft 23 kts 180°
2026-04-12 04:15 39.86151 -104.68508 5369 ft 15 kts 181°
2026-04-12 04:16 39.86040 -104.68489 5370 ft 15 kts 133°
2026-04-12 04:16 39.86030 -104.68366 5375 ft 15 kts 90°
2026-04-12 04:16 39.86026 -104.68223 5380 ft 16 kts 101°
2026-04-12 04:16 39.86016 -104.68076 5382 ft 19 kts 90°
2026-04-12 04:17 39.86015 -104.67883 5382 ft 24 kts 90°
2026-04-12 04:17 39.86013 -104.67661 5382 ft 25 kts 90°
2026-04-12 04:17 39.86013 -104.67534 5382 ft 3 kts 90°
2026-04-12 04:17 39.85998 -104.67510 5381 ft 5 kts 159°
2026-04-12 04:18 39.85948 -104.67507 5382 ft 8 kts 180°
2026-04-12 04:18 39.85935 -104.67507 5382 ft 1 kts 180°
2026-04-12 04:18 39.85934 -104.67507 5382 ft 0 kts 180°